DAL1696 KLAX-KLAS

Flight info

Callsign DAL1696
Flight time 0h 44m
Altitude 29000
Route ORCKA5 MISEN RNDRZ4
Aircraft B739/M-SDE2E3FGHIRWXY/LB1

Departure

Time 2026-05-07 21:04
Airport Los Angeles International Airport (KLAX)

Arrival

Time 2026-05-07 21:48
Airport Harry Reid International Airport (KLAS)
Time Latitude Longitude Altitude Speed Heading
2026-05-07 20:43 33.94642 -118.40637 92 ft 0 kts 262°
2026-05-07 20:52 33.94643 -118.40621 92 ft 2 kts 263°
2026-05-07 20:53 33.94641 -118.40595 92 ft 4 kts 314°
2026-05-07 20:53 33.94619 -118.40580 92 ft 4 kts 344°
2026-05-07 20:53 33.94600 -118.40574 93 ft 1 kts 346°
2026-05-07 20:53 33.94623 -118.40583 92 ft 4 kts 349°
2026-05-07 20:54 33.94629 -118.40584 92 ft 0 kts 353°
2026-05-07 20:59 33.94630 -118.40584 92 ft 1 kts 353°
2026-05-07 20:59 33.94651 -118.40587 93 ft 6 kts 353°
2026-05-07 20:59 33.94713 -118.40597 94 ft 10 kts 352°
2026-05-07 20:59 33.94782 -118.40599 92 ft 10 kts 356°
2026-05-07 21:00 33.94847 -118.40594 94 ft 9 kts 24°
2026-05-07 21:00 33.94871 -118.40523 96 ft 9 kts 82°
2026-05-07 21:00 33.94880 -118.40447 93 ft 9 kts 82°
2026-05-07 21:00 33.94888 -118.40361 93 ft 11 kts 84°
2026-05-07 21:01 33.94898 -118.40260 94 ft 13 kts 83°
2026-05-07 21:01 33.94917 -118.40188 95 ft 4 kts 40°
2026-05-07 21:01 33.94925 -118.40183 94 ft 0 kts 28°
2026-05-07 21:02 33.94950 -118.40178 95 ft 5 kts
2026-05-07 21:02 33.95000 -118.40186 97 ft 13 kts 339°
2026-05-07 21:03 33.95012 -118.40257 97 ft 6 kts 260°
2026-05-07 21:03 33.94987 -118.40436 97 ft 60 kts 262°
2026-05-07 21:03 33.94901 -118.41287 98 ft 141 kts 263°
2026-05-07 21:03 33.94767 -118.42680 340 ft 186 kts 263°
2026-05-07 21:04 33.94632 -118.44332 1074 ft 210 kts 264°
2026-05-07 21:04 33.94484 -118.46123 2141 ft 210 kts 263°
2026-05-07 21:04 33.94096 -118.47568 3530 ft 161 kts 236°
2026-05-07 21:04 33.93369 -118.48538 4243 ft 161 kts 220°
2026-05-07 21:05 33.92244 -118.49168 4276 ft 202 kts 194°
2026-05-07 21:05 33.90739 -118.49086 4291 ft 238 kts 161°
2026-05-07 21:05 33.89285 -118.47902 4499 ft 267 kts 130°
2026-05-07 21:05 33.88530 -118.45826 4843 ft 286 kts 95°
2026-05-07 21:06 33.88733 -118.43454 5541 ft 287 kts 69°
2026-05-07 21:06 33.89753 -118.41401 6272 ft 284 kts 44°
2026-05-07 21:06 33.91205 -118.39774 7115 ft 281 kts 39°
2026-05-07 21:06 33.92362 -118.38613 7665 ft 282 kts 38°
2026-05-07 21:07 33.93884 -118.37103 8411 ft 283 kts 39°
2026-05-07 21:07 33.95387 -118.35590 9312 ft 278 kts 39°
2026-05-07 21:07 33.96859 -118.34084 10080 ft 279 kts 40°
2026-05-07 21:07 33.98365 -118.32531 10476 ft 294 kts 40°
2026-05-07 21:08 33.99978 -118.30861 10612 ft 317 kts 41°
2026-05-07 21:08 34.01557 -118.28898 10723 ft 338 kts 53°
2026-05-07 21:08 34.02915 -118.26518 11112 ft 348 kts 56°
2026-05-07 21:08 34.04257 -118.24069 11647 ft 354 kts 56°
2026-05-07 21:09 34.05625 -118.21587 12228 ft 357 kts 56°
2026-05-07 21:09 34.07016 -118.19090 12865 ft 359 kts 56°
2026-05-07 21:09 34.08421 -118.16592 13556 ft 361 kts 56°
2026-05-07 21:09 34.09846 -118.14067 14091 ft 365 kts 56°
2026-05-07 21:10 34.11276 -118.11537 14803 ft 365 kts 56°
2026-05-07 21:10 34.12714 -118.08993 15362 ft 369 kts 56°
2026-05-07 21:10 34.14166 -118.06420 15941 ft 373 kts 55°
2026-05-07 21:10 34.15630 -118.03822 16511 ft 376 kts 55°
2026-05-07 21:11 34.17058 -118.01287 17167 ft 377 kts 55°
2026-05-07 21:11 34.18531 -117.98670 17810 ft 378 kts 55°
2026-05-07 21:11 34.21513 -117.93370 18869 ft 384 kts 56°
2026-05-07 21:12 34.23021 -117.90683 19298 ft 389 kts 55°
2026-05-07 21:12 34.24544 -117.87968 19805 ft 392 kts 55°
2026-05-07 21:12 34.26075 -117.85234 20307 ft 394 kts 55°
2026-05-07 21:12 34.27620 -117.82475 20783 ft 398 kts 55°
2026-05-07 21:13 34.29175 -117.79696 21243 ft 402 kts 55°
2026-05-07 21:13 34.30747 -117.76884 21731 ft 405 kts 55°
2026-05-07 21:13 34.32337 -117.74041 22096 ft 411 kts 55°
2026-05-07 21:13 34.33938 -117.71173 22601 ft 412 kts 55°
2026-05-07 21:14 34.35548 -117.68300 23098 ft 414 kts 54°
2026-05-07 21:14 34.37218 -117.65441 23510 ft 418 kts 53°
2026-05-07 21:14 34.38933 -117.62584 23846 ft 421 kts 53°
2026-05-07 21:14 34.40673 -117.59706 24230 ft 424 kts 53°
2026-05-07 21:15 34.42413 -117.56823 24622 ft 425 kts 53°
2026-05-07 21:15 34.44160 -117.53918 25019 ft 427 kts 53°
2026-05-07 21:15 34.45904 -117.51005 25606 ft 426 kts 53°
2026-05-07 21:15 34.47631 -117.48110 26251 ft 422 kts 53°
2026-05-07 21:16 34.49340 -117.45238 26891 ft 418 kts 53°
2026-05-07 21:16 34.51045 -117.42371 27101 ft 423 kts 53°
2026-05-07 21:16 34.52775 -117.39458 27029 ft 424 kts 53°
2026-05-07 21:16 34.54488 -117.36569 27094 ft 420 kts 53°
2026-05-07 21:17 34.56185 -117.33705 27075 ft 418 kts 53°
2026-05-07 21:17 34.57885 -117.30835 27111 ft 421 kts 53°
2026-05-07 21:17 34.59613 -117.27917 27199 ft 431 kts 53°
2026-05-07 21:17 34.61349 -117.24983 27508 ft 433 kts 53°
2026-05-07 21:18 34.63125 -117.21977 28089 ft 430 kts 53°
2026-05-07 21:18 34.64829 -117.19088 28772 ft 423 kts 53°
2026-05-07 21:18 34.66535 -117.16194 28990 ft 424 kts 52°
2026-05-07 21:18 34.68269 -117.13254 28887 ft 429 kts 52°
2026-05-07 21:19 34.71727 -117.07379 28948 ft 425 kts 53°
2026-05-07 21:19 34.75154 -117.01548 28974 ft 424 kts 53°
2026-05-07 21:20 34.78024 -116.96657 28984 ft 424 kts 53°
2026-05-07 21:20 34.81443 -116.90822 29007 ft 424 kts 53°
2026-05-07 21:21 34.84864 -116.84974 29021 ft 424 kts 53°
2026-05-07 21:21 34.88286 -116.79113 29008 ft 425 kts 53°
2026-05-07 21:22 34.91704 -116.73253 29000 ft 425 kts 53°
2026-05-07 21:22 34.95075 -116.67344 29011 ft 424 kts 54°
2026-05-07 21:23 34.98413 -116.61398 28972 ft 425 kts 54°
2026-05-07 21:23 35.01747 -116.55461 28985 ft 424 kts 53°
2026-05-07 21:24 35.03392 -116.52535 28883 ft 420 kts 54°
2026-05-07 21:24 35.05028 -116.49620 28512 ft 412 kts 53°
2026-05-07 21:24 35.06627 -116.46773 28284 ft 401 kts 53°
2026-05-07 21:24 35.08192 -116.43984 28001 ft 396 kts 53°
2026-05-07 21:25 35.09749 -116.41214 27733 ft 394 kts 53°
2026-05-07 21:25 35.11478 -116.38576 27427 ft 392 kts 45°
2026-05-07 21:25 35.13325 -116.36208 27233 ft 389 kts 44°
2026-05-07 21:25 35.15213 -116.33849 26971 ft 388 kts 44°
2026-05-07 21:26 35.17096 -116.31484 26727 ft 387 kts 44°
2026-05-07 21:26 35.18952 -116.29117 26389 ft 384 kts 45°
2026-05-07 21:26 35.20786 -116.26752 25866 ft 383 kts 45°
2026-05-07 21:26 35.21479 -116.25855 25720 ft 380 kts 45°
2026-05-07 21:27 35.23273 -116.23516 25272 ft 377 kts 46°
2026-05-07 21:27 35.25032 -116.21126 24756 ft 376 kts 46°
2026-05-07 21:27 35.26756 -116.18742 24312 ft 373 kts 46°
2026-05-07 21:27 35.28474 -116.16368 23806 ft 373 kts 46°
2026-05-07 21:28 35.30194 -116.14003 23324 ft 371 kts 46°
2026-05-07 21:28 35.31917 -116.11639 22761 ft 370 kts 46°
2026-05-07 21:28 35.33623 -116.09298 22300 ft 367 kts 46°
2026-05-07 21:28 35.35316 -116.06974 21801 ft 364 kts 46°
2026-05-07 21:29 35.36988 -116.04677 21352 ft 361 kts 46°
2026-05-07 21:29 35.38661 -116.02377 20895 ft 359 kts 46°
2026-05-07 21:29 35.40317 -116.00097 20452 ft 357 kts 47°
2026-05-07 21:29 35.41963 -115.97831 20005 ft 355 kts 47°
2026-05-07 21:30 35.43596 -115.95580 19551 ft 353 kts 47°
2026-05-07 21:30 35.45219 -115.93342 19135 ft 351 kts 47°
2026-05-07 21:30 35.46839 -115.91107 18678 ft 350 kts 47°
2026-05-07 21:30 35.48451 -115.88880 18229 ft 349 kts 47°
2026-05-07 21:31 35.50059 -115.86659 17744 ft 347 kts 47°
2026-05-07 21:31 35.51661 -115.84443 17264 ft 346 kts 47°
2026-05-07 21:31 35.53253 -115.82240 16811 ft 344 kts 47°
2026-05-07 21:31 35.54830 -115.80057 16371 ft 341 kts 47°
2026-05-07 21:32 35.56384 -115.77904 16265 ft 329 kts 47°
2026-05-07 21:32 35.57876 -115.75834 16102 ft 320 kts 47°
2026-05-07 21:32 35.59329 -115.73821 15966 ft 310 kts 47°
2026-05-07 21:32 35.60756 -115.71883 15800 ft 303 kts 46°
2026-05-07 21:33 35.62163 -115.69990 15643 ft 298 kts 46°
2026-05-07 21:33 35.63560 -115.68112 15513 ft 299 kts 46°
2026-05-07 21:33 35.64975 -115.66206 15381 ft 305 kts 46°
2026-05-07 21:33 35.66414 -115.64264 15215 ft 309 kts 47°
2026-05-07 21:34 35.67842 -115.62335 15076 ft 309 kts 47°
2026-05-07 21:34 35.69290 -115.60376 14904 ft 309 kts 47°
2026-05-07 21:34 35.70733 -115.58421 14743 ft 309 kts 47°
2026-05-07 21:34 35.72177 -115.56469 14592 ft 308 kts 46°
2026-05-07 21:35 35.73812 -115.54776 14353 ft 309 kts 31°
2026-05-07 21:35 35.75662 -115.53489 14349 ft 303 kts 29°
2026-05-07 21:35 35.77521 -115.52226 14067 ft 308 kts 29°
2026-05-07 21:35 35.79382 -115.50953 13977 ft 305 kts 29°
2026-05-07 21:36 35.81238 -115.49672 13803 ft 305 kts 29°
2026-05-07 21:36 35.83082 -115.48389 13655 ft 305 kts 29°
2026-05-07 21:36 35.84920 -115.47103 13473 ft 304 kts 29°
2026-05-07 21:36 35.86764 -115.45811 13329 ft 303 kts 29°
2026-05-07 21:37 35.88598 -115.44523 13167 ft 303 kts 29°
2026-05-07 21:37 35.90424 -115.43240 13012 ft 303 kts 28°
2026-05-07 21:37 35.92269 -115.41949 12677 ft 308 kts 28°
2026-05-07 21:37 35.94139 -115.40645 12324 ft 310 kts 28°
2026-05-07 21:38 35.96009 -115.39341 11992 ft 307 kts 28°
2026-05-07 21:38 35.97866 -115.38045 11638 ft 305 kts 28°
2026-05-07 21:38 35.99672 -115.36698 11275 ft 305 kts 37°
2026-05-07 21:38 36.00975 -115.34643 10945 ft 305 kts 66°
2026-05-07 21:39 36.01488 -115.32149 10796 ft 301 kts 85°
2026-05-07 21:39 36.01423 -115.29543 10625 ft 301 kts 92°
2026-05-07 21:39 36.01273 -115.26952 10345 ft 306 kts 92°
2026-05-07 21:39 36.01115 -115.24329 10156 ft 303 kts 92°
2026-05-07 21:40 36.00967 -115.21753 9938 ft 298 kts 92°
2026-05-07 21:40 36.00830 -115.19219 9711 ft 293 kts 92°
2026-05-07 21:40 36.00702 -115.16724 9488 ft 288 kts 92°
2026-05-07 21:40 36.00579 -115.14289 9296 ft 282 kts 92°
2026-05-07 21:41 36.00458 -115.11895 9087 ft 277 kts 92°
2026-05-07 21:41 36.00339 -115.09548 8858 ft 270 kts 92°
2026-05-07 21:41 36.00223 -115.07268 8603 ft 262 kts 92°
2026-05-07 21:41 36.00110 -115.05061 8373 ft 253 kts 92°
2026-05-07 21:42 36.00000 -115.02909 8161 ft 249 kts 92°
2026-05-07 21:42 35.99896 -115.00791 7906 ft 246 kts 90°
2026-05-07 21:42 35.99872 -114.98671 7539 ft 246 kts 88°
2026-05-07 21:42 35.99871 -114.96550 7236 ft 248 kts 88°
2026-05-07 21:43 35.99879 -114.94415 6942 ft 249 kts 85°
2026-05-07 21:43 36.00364 -114.92392 6545 ft 249 kts 52°
2026-05-07 21:43 36.01614 -114.90955 6314 ft 244 kts 33°
2026-05-07 21:43 36.03146 -114.90091 5923 ft 245 kts
2026-05-07 21:44 36.04780 -114.90349 5691 ft 238 kts 339°
2026-05-07 21:44 36.06257 -114.91274 5367 ft 234 kts 325°
2026-05-07 21:44 36.07261 -114.92793 5028 ft 229 kts 288°
2026-05-07 21:44 36.07408 -114.94695 4824 ft 218 kts 270°
2026-05-07 21:45 36.07394 -114.96546 4589 ft 211 kts 270°
2026-05-07 21:45 36.07384 -114.98352 4273 ft 207 kts 270°
2026-05-07 21:45 36.07379 -115.00068 4062 ft 190 kts 270°
2026-05-07 21:45 36.07376 -115.01637 3792 ft 176 kts 270°
2026-05-07 21:46 36.07378 -115.03072 3530 ft 163 kts 270°
2026-05-07 21:46 36.07372 -115.04498 3304 ft 165 kts 269°
2026-05-07 21:46 36.07358 -115.05893 3158 ft 159 kts 269°
2026-05-07 21:46 36.07339 -115.07260 2974 ft 159 kts 269°
2026-05-07 21:47 36.07328 -115.08622 2791 ft 155 kts 270°
2026-05-07 21:47 36.07360 -115.09954 2584 ft 158 kts 272°
2026-05-07 21:47 36.07368 -115.11329 2345 ft 161 kts 270°
2026-05-07 21:47 36.07359 -115.12691 2114 ft 155 kts 270°
2026-05-07 21:48 36.07361 -115.13891 2079 ft 119 kts 270°
2026-05-07 21:48 36.07366 -115.14655 2091 ft 57 kts 271°
2026-05-07 21:48 36.07424 -115.14944 2096 ft 26 kts 294°
2026-05-07 21:48 36.07458 -115.15027 2097 ft 5 kts 300°
2026-05-07 21:49 36.07476 -115.15061 2098 ft 0 kts 308°
2026-05-07 21:49 36.07479 -115.15065 2098 ft 4 kts 309°
2026-05-07 21:49 36.07522 -115.15120 2101 ft 8 kts 320°
2026-05-07 21:49 36.07537 -115.15132 2102 ft 0 kts 327°
2026-05-07 21:51 36.07571 -115.15156 2105 ft 12 kts 333°
2026-05-07 21:51 36.07680 -115.15220 2109 ft 22 kts 334°
2026-05-07 21:52 36.07798 -115.15218 2100 ft 21 kts 70°
2026-05-07 21:52 36.07801 -115.15042 2099 ft 20 kts 93°
2026-05-07 21:52 36.07794 -115.14872 2098 ft 20 kts 95°
2026-05-07 21:52 36.07780 -115.14708 2097 ft 19 kts 99°
2026-05-07 21:53 36.07771 -115.14549 2096 ft 18 kts 94°
2026-05-07 21:53 36.07757 -115.14396 2096 ft 18 kts 94°
2026-05-07 21:53 36.07754 -115.14247 2094 ft 17 kts 93°
2026-05-07 21:53 36.07819 -115.14158 2093 ft 16 kts
2026-05-07 21:54 36.07922 -115.14160 2094 ft 12 kts
2026-05-07 21:54 36.07997 -115.14159 2094 ft 7 kts 355°
2026-05-07 21:54 36.08029 -115.14122 2093 ft 8 kts 85°
2026-05-07 21:54 36.08026 -115.14075 2092 ft 4 kts 95°
2026-05-07 21:55 36.08026 -115.14064 2092 ft 2 kts 95°
2026-05-07 21:55 36.08025 -115.14059 2092 ft 0 kts 95°